When you browse on this site, cookies collect data to enhance your experience and personalize the content and advertising you see.
Visit our Privacy Policy to learn more. By continuing to use the site, you agree to this use of cookies and data.
  • In Hungary
  • List of Countries
  • For 7 days
  • Water Temperature
  • Satellite Maps
  • Weather Map
  • News
  • Weather Widgets
  • user-avatar
    Login

    Hourly Weather Nashua

    Today, 18 February, Monday

    Time Temperature Precipitation Wind Pressure Humidity
    00:00 -1°C° 0.1 mm 1 mps 759 mmHg 64%
    01:00 -1°C° 0 mm 1 mps 758 mmHg 75%
    02:00 -1°C° 0.6 mm 1 mps 758 mmHg 81%
    03:00 -2°C° 0.6 mm 1 mps 757 mmHg 86%
    04:00 -2°C° 0.6 mm 1 mps 757 mmHg 91%
    05:00 -2°C° 0.4 mm 1 mps 756 mmHg 92%
    06:00 -1°C° 0.4 mm 1 mps 755 mmHg 92%
    07:00 -2°C° 0 mm 1 mps 755 mmHg 91%
    08:00 -1°C° 0.2 mm 1 mps 755 mmHg 89%
    09:00 -3°C° 0.2 mm 2 mps 754 mmHg 86%
    10:00 -3°C° 0.2 mm 2 mps 754 mmHg 84%
    11:00 -2°C° 0.1 mm 2 mps 754 mmHg 83%
    12:00 -2°C° 0.1 mm 2 mps 753 mmHg 82%
    13:00 -1°C° 0.1 mm 2 mps 753 mmHg 81%
    14:00 -2°C° 0.2 mm 2 mps 753 mmHg 82%
    15:00 -2°C° 0.2 mm 2 mps 754 mmHg 82%
    16:00 -2°C° 0.2 mm 2 mps 754 mmHg 83%
    17:00 -3°C° 0.1 mm 2 mps 755 mmHg 83%
    18:00 -4°C° 0.1 mm 3 mps 757 mmHg 82%
    19:00 -5°C° 0.1 mm 3 mps 758 mmHg 82%
    20:00 -7°C° 0 mm 4 mps 759 mmHg 75%
    21:00 -10°C° 0 mm 5 mps 760 mmHg 68%
    22:00 -11°C° 0 mm 5 mps 761 mmHg 61%
    23:00 -11°C° 0 mm 5 mps 762 mmHg 63%

    Tomorrow, 19 February, Tuesday

    Time Temperature Precipitation Wind Pressure Humidity
    00:00 -12°C° 0 mm 5 mps 763 mmHg 66%
    01:00 -12°C° 0 mm 5 mps 764 mmHg 68%
    02:00 -13°C° 0 mm 5 mps 765 mmHg 67%
    03:00 -13°C° 0 mm 5 mps 765 mmHg 66%
    04:00 -13°C° 0 mm 5 mps 766 mmHg 65%
    05:00 -13°C° 0 mm 5 mps 767 mmHg 64%
    06:00 -14°C° 0 mm 5 mps 767 mmHg 63%
    07:00 -14°C° 0 mm 5 mps 768 mmHg 63%
    08:00 -13°C° 0 mm 5 mps 769 mmHg 59%
    09:00 -12°C° 0 mm 5 mps 769 mmHg 54%
    10:00 -10°C° 0 mm 5 mps 770 mmHg 50%
    11:00 -8°C° 0 mm 5 mps 770 mmHg 49%
    12:00 -7°C° 0 mm 4 mps 770 mmHg 47%
    13:00 -5°C° 0 mm 4 mps 770 mmHg 45%
    14:00 -5°C° 0 mm 4 mps 770 mmHg 46%
    15:00 -5°C° 0 mm 4 mps 770 mmHg 48%
    16:00 -5°C° 0 mm 4 mps 770 mmHg 49%
    17:00 -6°C° 0 mm 3 mps 770 mmHg 56%
    18:00 -6°C° 0 mm 2 mps 771 mmHg 62%
    19:00 -7°C° 0 mm 2 mps 771 mmHg 69%
    20:00 -8°C° 0 mm 2 mps 772 mmHg 69%
    21:00 -8°C° 0 mm 2 mps 772 mmHg 70%
    22:00 -9°C° 0 mm 2 mps 772 mmHg 70%
    23:00 -9°C° 0 mm 2 mps 772 mmHg 69%

    Day after tomorrow, 20 February, Wednesday

    Time Temperature Precipitation Wind Pressure Humidity
    00:00 -9°C° 0 mm 2 mps 773 mmHg 69%
    01:00 -10°C° 0 mm 2 mps 773 mmHg 68%
    02:00 -10°C° 0 mm 2 mps 773 mmHg 69%
    03:00 -9°C° 0 mm 1 mps 773 mmHg 71%
    04:00 -10°C° 0 mm 1 mps 772 mmHg 72%
    05:00 -10°C° 0 mm 1 mps 773 mmHg 72%
    06:00 -10°C° 0 mm 1 mps 773 mmHg 73%
    07:00 -10°C° 0 mm 1 mps 773 mmHg 73%
    08:00 -8°C° 0 mm 1 mps 773 mmHg 66%
    09:00 -7°C° 0 mm 1 mps 773 mmHg 60%
    10:00 -4°C° 0 mm 1 mps 774 mmHg 53%
    11:00 -3°C° 0 mm 1 mps 773 mmHg 51%
    12:00 -2°C° 0 mm 1 mps 772 mmHg 49%
    13:00 -1°C° 0 mm 1 mps 772 mmHg 46%
    14:00 0°C° 0 mm 1 mps 771 mmHg 49%
    15:00 -2°C° 0 mm 2 mps 771 mmHg 51%
    16:00 -2°C° 0 mm 2 mps 770 mmHg 53%
    17:00 -3°C° 0 mm 2 mps 770 mmHg 58%
    18:00 -3°C° 0 mm 2 mps 770 mmHg 63%
    19:00 -3°C° 0 mm 2 mps 770 mmHg 68%
    20:00 -4°C° 0 mm 2 mps 769 mmHg 69%
    21:00 -4°C° 0 mm 2 mps 768 mmHg 70%
    22:00 -4°C° 0 mm 2 mps 768 mmHg 71%
    23:00 -4°C° 0.3 mm 2 mps 767 mmHg 75%

    21 February, Thursday

    Time Temperature Precipitation Wind Pressure Humidity
    00:00 -5°C° 0.3 mm 3 mps 765 mmHg 79%
    01:00 -4°C° 0.3 mm 3 mps 764 mmHg 83%
    02:00 -4°C° 0.6 mm 3 mps 763 mmHg 86%
    03:00 -4°C° 0.6 mm 3 mps 761 mmHg 89%
    04:00 -3°C° 0.6 mm 4 mps 759 mmHg 93%
    05:00 -1°C° 0.5 mm 3 mps 758 mmHg 94%
    06:00 +1°C° 0.5 mm 2 mps 756 mmHg 95%
    07:00 +2°C° 0.5 mm 2 mps 754 mmHg 97%
    08:00 +3°C° 0.7 mm 2 mps 753 mmHg 97%
    09:00 +5°C° 0.7 mm 1 mps 752 mmHg 98%
    10:00 +6°C° 0.7 mm 1 mps 751 mmHg 98%
    11:00 +7°C° 0 mm 3 mps 751 mmHg 90%
    12:00 +8°C° 0 mm 4 mps 750 mmHg 82%
    13:00 +10°C° 0 mm 6 mps 750 mmHg 74%
    14:00 +8°C° 0 mm 6 mps 750 mmHg 72%
    15:00 +7°C° 0 mm 6 mps 751 mmHg 70%
    16:00 +5°C° 0 mm 6 mps 751 mmHg 68%
    17:00 +4°C° 0 mm 6 mps 752 mmHg 70%
    18:00 +2°C° 0 mm 6 mps 753 mmHg 72%
    19:00 +1°C° 0 mm 5 mps 753 mmHg 75%
    20:00 +1°C° 0 mm 5 mps 754 mmHg 74%
    21:00 0°C° 0 mm 5 mps 755 mmHg 74%
    22:00 0°C° 0 mm 5 mps 756 mmHg 73%
    23:00 -1°C° 0 mm 5 mps 756 mmHg 74%

    22 February, Friday

    Time Temperature Precipitation Wind Pressure Humidity
    00:00 -1°C° 0 mm 5 mps 757 mmHg 74%
    01:00 -2°C° 0 mm 5 mps 758 mmHg 74%
    02:00 -2°C° 0 mm 5 mps 759 mmHg 75%
    03:00 -3°C° 0 mm 4 mps 760 mmHg 75%
    04:00 -4°C° 0 mm 3 mps 761 mmHg 76%
    05:00 -4°C° 0 mm 3 mps 762 mmHg 75%
    06:00 -4°C° 0 mm 3 mps 763 mmHg 75%
    07:00 -4°C° 0 mm 3 mps 764 mmHg 75%
    08:00 -2°C° 0 mm 3 mps 764 mmHg 70%
    09:00 -1°C° 0 mm 3 mps 765 mmHg 65%
    10:00 0°C° 0 mm 4 mps 765 mmHg 60%
    11:00 +2°C° 0 mm 3 mps 765 mmHg 59%
    12:00 +2°C° 0 mm 3 mps 765 mmHg 58%
    13:00 +3°C° 0 mm 3 mps 765 mmHg 57%
    14:00 +3°C° 0 mm 3 mps 765 mmHg 60%
    15:00 +4°C° 0 mm 2 mps 765 mmHg 62%
    16:00 +4°C° 0 mm 2 mps 765 mmHg 65%
    17:00 +2°C° 0 mm 2 mps 766 mmHg 71%
    18:00 +2°C° 0 mm 1 mps 766 mmHg 77%
    19:00 0°C° 0 mm 1 mps 767 mmHg 83%
    20:00 0°C° 0 mm 1 mps 767 mmHg 84%
    21:00 0°C° 0 mm 1 mps 768 mmHg 85%
    22:00 -1°C° 0 mm 1 mps 768 mmHg 86%
    23:00 -1°C° 0 mm 1 mps 768 mmHg 86%

    23 February, Saturday

    Time Temperature Precipitation Wind Pressure Humidity
    00:00 -1°C° 0 mm 1 mps 768 mmHg 86%
    01:00 -1°C° 0 mm 1 mps 768 mmHg 87%
    02:00 -1°C° 0 mm 1 mps 768 mmHg 86%
    03:00 -2°C° 0 mm 0 mps 768 mmHg 86%
    04:00 -2°C° 0 mm 0 mps 768 mmHg 86%
    05:00 -2°C° 0 mm 0 mps 768 mmHg 86%
    06:00 -2°C° 0 mm 0 mps 768 mmHg 85%
    07:00 -2°C° 0 mm 0 mps 768 mmHg 85%
    08:00 0°C° 0 mm 0 mps 768 mmHg 77%
    09:00 +3°C° 0 mm 1 mps 768 mmHg 69%
    10:00 +4°C° 0 mm 1 mps 768 mmHg 62%
    11:00 +5°C° 0 mm 1 mps 767 mmHg 59%
    12:00 +5°C° 0 mm 2 mps 766 mmHg 57%
    13:00 +6°C° 0 mm 2 mps 765 mmHg 55%
    14:00 +6°C° 0 mm 2 mps 765 mmHg 58%
    15:00 +7°C° 0 mm 1 mps 765 mmHg 62%
    16:00 +7°C° 0 mm 1 mps 764 mmHg 66%
    17:00 +5°C° 0 mm 1 mps 764 mmHg 73%
    18:00 +4°C° 0 mm 1 mps 764 mmHg 79%
    19:00 +2°C° 0 mm 1 mps 764 mmHg 86%
    20:00 +2°C° 0 mm 1 mps 763 mmHg 86%
    21:00 +2°C° 0 mm 1 mps 763 mmHg 87%
    22:00 +2°C° 0 mm 1 mps 762 mmHg 87%
    23:00 +2°C° 0 mm 1 mps 762 mmHg 88%
    Show more